Time,TemperatureF,DewpointF,PressureIn,WindDirection,WindDirectionDegrees,WindSpeedMPH,WindSpeedGustMPH,Humidity,HourlyPrecipIn,Conditions,Clouds,dailyrainin,SoftwareType,DateUTC
2013-03-30 00:00:00,42.9,29.6,30.19,NNW,341,1.0,1.0,59,0.00,,---,0.00,VWS V14.01,2013-03-30 04:00:00,
2013-03-30 00:05:00,44.3,29.6,30.19,NNE,15,0.0,2.0,56,0.00,,---,0.00,VWS V14.01,2013-03-30 04:05:00,
2013-03-30 00:10:00,45.3,29.2,30.19,NE,34,1.0,2.0,53,0.00,,---,0.00,VWS V14.01,2013-03-30 04:10:00,
2013-03-30 00:15:00,46.0,29.4,30.19,NNW,342,1.0,2.0,52,0.00,,---,0.00,VWS V14.01,2013-03-30 04:15:00,
2013-03-30 00:20:00,46.7,29.5,30.19,NW,326,0.0,5.0,51,0.00,,---,0.00,VWS V14.01,2013-03-30 04:20:00,
2013-03-30 00:25:00,47.5,29.3,30.19,NE,36,1.0,5.0,49,0.00,,---,0.00,VWS V14.01,2013-03-30 04:25:00,
2013-03-30 00:30:00,47.9,29.7,30.19,NNE,18,1.0,1.0,49,0.00,,---,0.00,VWS V14.01,2013-03-30 04:30:00,
2013-03-30 00:35:00,47.8,29.6,30.19,NNE,28,1.0,1.0,49,0.00,,---,0.00,VWS V14.01,2013-03-30 04:35:00,
2013-03-30 00:40:00,47.6,29.4,30.19,NW,317,1.0,1.0,49,0.00,,---,0.00,VWS V14.01,2013-03-30 04:40:00,
2013-03-30 00:45:00,47.9,29.7,30.19,NNE,12,1.0,4.0,49,0.00,,---,0.00,VWS V14.01,2013-03-30 04:45:00,
2013-03-30 00:50:00,47.7,31.0,30.19,NNE,32,1.0,4.0,52,0.00,,---,0.00,VWS V14.01,2013-03-30 04:50:00,
2013-03-30 00:55:00,47.2,30.5,30.19,NNE,17,2.0,4.0,52,0.00,,---,0.00,VWS V14.01,2013-03-30 04:55:00,
2013-03-30 01:00:00,47.1,29.9,30.19,NE,34,2.0,4.0,51,0.00,,---,0.00,VWS V14.01,2013-03-30 05:00:00,
2013-03-30 01:05:00,47.1,30.4,30.19,NE,44,1.0,4.0,52,0.00,,---,0.00,VWS V14.01,2013-03-30 05:05:00,
2013-03-30 01:10:00,46.9,30.2,30.19,NNE,27,0.0,4.0,52,0.00,,---,0.00,VWS V14.01,2013-03-30 05:10:00,
2013-03-30 01:15:00,46.5,30.8,30.18,NE,40,1.0,4.0,54,0.00,,---,0.00,VWS V14.01,2013-03-30 05:15:00,
2013-03-30 01:20:00,46.1,31.3,30.18,NE,36,1.0,4.0,56,0.00,,---,0.00,VWS V14.01,2013-03-30 05:20:00,
2013-03-30 01:25:00,45.7,29.6,30.18,NE,51,1.0,1.0,53,0.00,,---,0.00,VWS V14.01,2013-03-30 05:25:00,
2013-03-30 01:30:00,45.6,29.5,30.18,NE,49,1.0,1.0,53,0.00,,---,0.00,VWS V14.01,2013-03-30 05:30:00,
2013-03-30 01:35:00,45.6,29.5,30.18,NNE,19,1.0,1.0,53,0.00,,---,0.00,VWS V14.01,2013-03-30 05:35:00,
2013-03-30 01:40:00,45.8,29.7,30.18,North,11,2.0,2.0,53,0.00,,---,0.00,VWS V14.01,2013-03-30 05:40:00,
2013-03-30 01:45:00,45.8,29.2,30.17,NNE,22,1.0,2.0,52,0.00,,---,0.00,VWS V14.01,2013-03-30 05:45:00,
2013-03-30 01:51:00,45.8,29.2,30.17,NNE,21,0.0,2.0,52,0.00,,---,0.00,VWS V14.01,2013-03-30 05:51:00,
2013-03-30 01:56:00,45.7,29.1,30.17,NNE,20,0.0,1.0,52,0.00,,---,0.00,VWS V14.01,2013-03-30 05:56:00,
2013-03-30 02:01:00,45.8,29.2,30.17,NNE,20,1.0,1.0,52,0.00,,---,0.00,VWS V14.01,2013-03-30 06:01:00,
2013-03-30 02:06:00,45.6,29.5,30.17,NNE,21,0.0,1.0,53,0.00,,---,0.00,VWS V14.01,2013-03-30 06:06:00,
2013-03-30 02:11:00,45.3,30.1,30.17,NNE,20,0.0,1.0,55,0.00,,---,0.00,VWS V14.01,2013-03-30 06:11:00,
2013-03-30 02:16:00,45.1,30.4,30.17,NNE,20,0.0,1.0,56,0.00,,---,0.00,VWS V14.01,2013-03-30 06:16:00,
2013-03-30 02:21:00,44.9,31.0,30.17,NNE,24,0.0,1.0,58,0.00,,---,0.00,VWS V14.01,2013-03-30 06:21:00,
2013-03-30 02:26:00,44.7,31.7,30.17,NNE,23,0.0,0.0,60,0.00,,---,0.00,VWS V14.01,2013-03-30 06:26:00,
2013-03-30 02:31:00,44.4,31.0,30.17,NNE,24,0.0,0.0,59,0.00,,---,0.00,VWS V14.01,2013-03-30 06:31:00,
2013-03-30 02:36:00,44.2,30.8,30.17,NNE,27,1.0,1.0,59,0.00,,---,0.00,VWS V14.01,2013-03-30 06:36:00,
2013-03-30 02:41:00,44.1,31.1,30.17,NE,39,0.0,1.0,60,0.00,,---,0.00,VWS V14.01,2013-03-30 06:41:00,
2013-03-30 02:46:00,43.9,31.3,30.17,NE,42,0.0,1.0,61,0.00,,---,0.00,VWS V14.01,2013-03-30 06:46:00,
2013-03-30 02:51:00,43.7,31.5,30.17,NE,43,0.0,1.0,62,0.00,,---,0.00,VWS V14.01,2013-03-30 06:51:00,
2013-03-30 02:56:00,43.5,31.0,30.17,NE,46,0.0,0.0,61,0.00,,---,0.00,VWS V14.01,2013-03-30 06:56:00,
2013-03-30 03:01:00,43.3,31.2,30.17,NE,44,0.0,0.0,62,0.00,,---,0.00,VWS V14.01,2013-03-30 07:01:00,
2013-03-30 03:06:00,43.0,30.1,30.17,NE,47,0.0,0.0,60,0.00,,---,0.00,VWS V14.01,2013-03-30 07:06:00,
2013-03-30 03:11:00,42.9,30.4,30.17,NE,47,0.0,0.0,61,0.00,,---,0.00,VWS V14.01,2013-03-30 07:11:00,
2013-03-30 03:16:00,42.7,30.2,30.17,NNE,30,0.0,0.0,61,0.00,,---,0.00,VWS V14.01,2013-03-30 07:16:00,
2013-03-30 03:22:00,42.4,29.9,30.17,NNE,31,0.0,0.0,61,0.00,,---,0.00,VWS V14.01,2013-03-30 07:22:00,
2013-03-30 03:27:00,42.1,30.0,30.17,NNE,31,0.0,0.0,62,0.00,,---,0.00,VWS V14.01,2013-03-30 07:27:00,
2013-03-30 03:32:00,41.6,30.3,30.17,NNE,30,0.0,1.0,64,0.00,,---,0.00,VWS V14.01,2013-03-30 07:32:00,
2013-03-30 03:37:00,41.2,30.0,30.17,NE,38,0.0,1.0,64,0.00,,---,0.00,VWS V14.01,2013-03-30 07:37:00,
2013-03-30 03:42:00,40.9,29.7,30.17,NE,40,0.0,1.0,64,0.00,,---,0.00,VWS V14.01,2013-03-30 07:42:00,
2013-03-30 03:47:00,40.6,29.4,30.17,NE,51,0.0,1.0,64,0.00,,---,0.00,VWS V14.01,2013-03-30 07:47:00,
2013-03-30 03:52:00,40.1,29.7,30.17,NE,54,0.0,1.0,66,0.00,,---,0.00,VWS V14.01,2013-03-30 07:52:00,
2013-03-30 03:57:00,39.8,29.4,30.17,NE,54,0.0,0.0,66,0.00,,---,0.00,VWS V14.01,2013-03-30 07:57:00,
2013-03-30 04:02:00,39.5,29.5,30.17,NE,49,0.0,0.0,67,0.00,,---,0.00,VWS V14.01,2013-03-30 08:02:00,
2013-03-30 04:07:00,39.3,29.6,30.17,NNE,28,0.0,1.0,68,0.00,,---,0.00,VWS V14.01,2013-03-30 08:07:00,
2013-03-30 04:12:00,39.3,30.0,30.17,NNE,26,0.0,1.0,69,0.00,,---,0.00,VWS V14.01,2013-03-30 08:12:00,
2013-03-30 04:17:00,39.3,31.0,30.17,NNE,26,0.0,1.0,72,0.00,,---,0.00,VWS V14.01,2013-03-30 08:17:00,
2013-03-30 04:22:00,39.4,31.8,30.17,NNE,26,0.0,1.0,74,0.00,,---,0.00,VWS V14.01,2013-03-30 08:22:00,
2013-03-30 04:27:00,39.4,31.1,30.18,NNE,30,0.0,0.0,72,0.00,,---,0.00,VWS V14.01,2013-03-30 08:27:00,
2013-03-30 04:32:00,39.5,30.5,30.17,NE,40,0.0,0.0,70,0.00,,---,0.00,VWS V14.01,2013-03-30 08:32:00,
2013-03-30 04:37:00,39.6,30.6,30.17,NE,52,0.0,0.0,70,0.00,,---,0.00,VWS V14.01,2013-03-30 08:37:00,
2013-03-30 04:42:00,39.6,31.0,30.17,NE,55,0.0,0.0,71,0.00,,---,0.00,VWS V14.01,2013-03-30 08:42:00,
2013-03-30 04:47:00,39.6,30.6,30.17,NE,55,1.0,1.0,70,0.00,,---,0.00,VWS V14.01,2013-03-30 08:47:00,
2013-03-30 04:52:00,39.7,31.1,30.17,NE,52,1.0,1.0,71,0.00,,---,0.00,VWS V14.01,2013-03-30 08:52:00,
2013-03-30 04:57:00,39.8,31.2,30.17,NE,42,0.0,0.0,71,0.00,,---,0.00,VWS V14.01,2013-03-30 08:57:00,
2013-03-30 05:02:00,39.8,30.8,30.17,NE,49,0.0,0.0,70,0.00,,---,0.00,VWS V14.01,2013-03-30 09:02:00,
2013-03-30 05:07:00,39.7,30.7,30.17,NE,50,0.0,0.0,70,0.00,,---,0.00,VWS V14.01,2013-03-30 09:07:00,
2013-03-30 05:12:00,39.7,30.7,30.17,NE,52,0.0,0.0,70,0.00,,---,0.00,VWS V14.01,2013-03-30 09:12:00,
2013-03-30 05:17:00,39.7,31.1,30.17,NE,53,0.0,1.0,71,0.00,,---,0.00,VWS V14.01,2013-03-30 09:17:00,
2013-03-30 05:23:00,39.7,31.1,30.17,NE,38,1.0,1.0,71,0.00,,---,0.00,VWS V14.01,2013-03-30 09:23:00,
2013-03-30 05:28:00,39.7,30.4,30.17,NNE,16,0.0,1.0,69,0.00,,---,0.00,VWS V14.01,2013-03-30 09:28:00,
2013-03-30 05:33:00,39.8,30.5,30.17,NNE,15,0.0,1.0,69,0.00,,---,0.00,VWS V14.01,2013-03-30 09:33:00,
2013-03-30 05:34:00,39.8,30.5,30.17,NNE,17,0.0,1.0,69,0.00,,---,0.00,VWS V14.01,2013-03-30 09:34:00,
2013-03-30 05:39:00,39.9,31.6,30.17,NNE,27,0.0,1.0,72,0.00,,---,0.00,VWS V14.01,2013-03-30 09:39:00,
2013-03-30 05:44:00,39.8,31.5,30.17,NNE,28,0.0,1.0,72,0.00,,---,0.00,VWS V14.01,2013-03-30 09:44:00,
2013-03-30 05:49:00,39.7,31.4,30.17,NNE,28,0.0,1.0,72,0.00,,---,0.00,VWS V14.01,2013-03-30 09:49:00,
2013-03-30 05:54:00,39.7,31.4,30.17,NNE,30,0.0,1.0,72,0.00,,---,0.00,VWS V14.01,2013-03-30 09:54:00,
2013-03-30 05:59:00,39.6,31.7,30.18,NNE,27,0.0,1.0,73,0.00,,---,0.00,VWS V14.01,2013-03-30 09:59:00,
2013-03-30 06:04:00,39.4,31.5,30.18,NE,35,0.0,1.0,73,0.00,,---,0.00,VWS V14.01,2013-03-30 10:04:00,
2013-03-30 06:09:00,39.3,31.4,30.18,NE,39,0.0,1.0,73,0.00,,---,0.00,VWS V14.01,2013-03-30 10:09:00,
2013-03-30 06:14:00,39.2,31.3,30.18,NE,39,0.0,1.0,73,0.00,,---,0.00,VWS V14.01,2013-03-30 10:14:00,
2013-03-30 06:19:00,39.1,31.5,30.18,NE,39,0.0,1.0,74,0.00,,---,0.00,VWS V14.01,2013-03-30 10:19:00,
2013-03-30 06:24:00,39.0,31.4,30.18,NE,42,0.0,1.0,74,0.00,,---,0.00,VWS V14.01,2013-03-30 10:24:00,
2013-03-30 06:29:00,38.9,31.3,30.18,NE,39,0.0,0.0,74,0.00,,---,0.00,VWS V14.01,2013-03-30 10:29:00,
2013-03-30 06:34:00,38.9,32.0,30.19,NE,42,0.0,0.0,76,0.00,,---,0.00,VWS V14.01,2013-03-30 10:34:00,
2013-03-30 06:39:00,38.8,31.6,30.19,NE,46,0.0,0.0,75,0.00,,---,0.00,VWS V14.01,2013-03-30 10:39:00,
2013-03-30 06:44:00,38.9,32.0,30.19,NE,46,0.0,0.0,76,0.00,,---,0.00,VWS V14.01,2013-03-30 10:44:00,
2013-03-30 06:49:00,38.8,32.2,30.19,NE,46,0.0,0.0,77,0.00,,---,0.00,VWS V14.01,2013-03-30 10:49:00,
2013-03-30 06:54:00,38.8,31.9,30.19,NE,38,0.0,1.0,76,0.00,,---,0.00,VWS V14.01,2013-03-30 10:54:00,
2013-03-30 06:59:00,38.8,31.9,30.19,NE,35,0.0,1.0,76,0.00,,---,0.00,VWS V14.01,2013-03-30 10:59:00,
2013-03-30 07:04:00,38.9,32.3,30.20,NE,40,0.0,1.0,77,0.00,,---,0.00,VWS V14.01,2013-03-30 11:04:00,
2013-03-30 07:09:00,38.9,32.6,30.20,NE,39,0.0,1.0,78,0.00,,---,0.00,VWS V14.01,2013-03-30 11:09:00,
2013-03-30 07:14:00,38.8,32.5,30.20,NE,40,0.0,1.0,78,0.00,,---,0.00,VWS V14.01,2013-03-30 11:14:00,
2013-03-30 07:19:00,38.8,32.5,30.20,NE,42,0.0,1.0,78,0.00,,---,0.00,VWS V14.01,2013-03-30 11:19:00,
2013-03-30 07:24:00,38.8,32.9,30.20,NE,50,0.0,1.0,79,0.00,,---,0.00,VWS V14.01,2013-03-30 11:24:00,
2013-03-30 07:29:00,38.9,33.0,30.20,NE,54,0.0,0.0,79,0.00,,---,0.00,VWS V14.01,2013-03-30 11:29:00,
2013-03-30 07:34:00,39.0,33.4,30.20,ENE,59,0.0,0.0,80,0.00,,---,0.00,VWS V14.01,2013-03-30 11:34:00,
2013-03-30 07:39:00,39.1,33.2,30.21,ENE,61,0.0,0.0,79,0.00,,---,0.00,VWS V14.01,2013-03-30 11:39:00,
2013-03-30 07:44:00,39.3,32.7,30.21,ENE,61,0.0,0.0,77,0.00,,---,0.00,VWS V14.01,2013-03-30 11:44:00,
2013-03-30 07:49:00,39.5,32.9,30.21,ENE,63,0.0,0.0,77,0.00,,---,0.00,VWS V14.01,2013-03-30 11:49:00,
2013-03-30 07:54:00,39.7,33.4,30.21,ENE,65,0.0,0.0,78,0.00,,---,0.00,VWS V14.01,2013-03-30 11:54:00,
2013-03-30 07:59:00,40.0,33.4,30.21,ENE,65,0.0,0.0,77,0.00,,---,0.00,VWS V14.01,2013-03-30 11:59:00,
2013-03-30 08:04:00,40.3,33.3,30.21,ENE,65,0.0,0.0,76,0.00,,---,0.00,VWS V14.01,2013-03-30 12:04:00,
2013-03-30 08:09:00,40.8,33.8,30.21,ENE,65,0.0,1.0,76,0.00,,---,0.00,VWS V14.01,2013-03-30 12:09:00,
2013-03-30 08:14:00,41.2,33.9,30.22,ENE,65,0.0,1.0,75,0.00,,---,0.00,VWS V14.01,2013-03-30 12:14:00,
2013-03-30 08:19:00,41.7,34.4,30.22,ENE,65,0.0,1.0,75,0.00,,---,0.00,VWS V14.01,2013-03-30 12:19:00,
2013-03-30 08:24:00,42.1,34.8,30.22,ENE,65,0.0,1.0,75,0.00,,---,0.00,VWS V14.01,2013-03-30 12:24:00,
2013-03-30 08:29:00,42.7,35.3,30.22,ENE,65,0.0,0.0,75,0.00,,---,0.00,VWS V14.01,2013-03-30 12:29:00,
2013-03-30 08:34:00,43.1,35.7,30.22,NE,56,0.0,0.0,75,0.00,,---,0.00,VWS V14.01,2013-03-30 12:34:00,
2013-03-30 08:39:00,43.5,34.4,30.22,NE,46,0.0,1.0,70,0.00,,---,0.00,VWS V14.01,2013-03-30 12:39:00,
2013-03-30 08:44:00,44.4,34.1,30.22,NE,34,0.0,1.0,67,0.00,,---,0.00,VWS V14.01,2013-03-30 12:44:00,
2013-03-30 08:49:00,45.3,34.2,30.22,NNW,331,0.0,2.0,65,0.00,,---,0.00,VWS V14.01,2013-03-30 12:49:00,
2013-03-30 08:54:00,46.2,32.7,30.22,North,11,1.0,2.0,59,0.00,,---,0.00,VWS V14.01,2013-03-30 12:54:00,
2013-03-30 08:59:00,46.9,31.6,30.22,NE,38,1.0,2.0,55,0.00,,---,0.00,VWS V14.01,2013-03-30 12:59:00,
2013-03-30 09:04:00,47.5,32.2,30.22,NE,46,1.0,2.0,55,0.00,,---,0.00,VWS V14.01,2013-03-30 13:04:00,
2013-03-30 09:09:00,48.2,31.9,30.22,NE,38,1.0,2.0,53,0.00,,---,0.00,VWS V14.01,2013-03-30 13:09:00,
2013-03-30 09:14:00,49.0,32.2,30.22,NE,37,0.0,2.0,52,0.00,,---,0.00,VWS V14.01,2013-03-30 13:14:00,
2013-03-30 09:19:00,49.8,32.9,30.22,NE,38,0.0,2.0,52,0.00,,---,0.00,VWS V14.01,2013-03-30 13:19:00,
2013-03-30 09:25:00,50.5,33.1,30.22,NNW,327,0.0,2.0,51,0.00,,---,0.00,VWS V14.01,2013-03-30 13:25:00,
2013-03-30 09:30:00,51.3,33.3,30.22,NNW,327,0.0,1.0,50,0.00,,---,0.00,VWS V14.01,2013-03-30 13:30:00,
2013-03-30 09:35:00,52.1,31.4,30.22,South,170,0.0,1.0,45,0.00,,---,0.00,VWS V14.01,2013-03-30 13:35:00,
2013-03-30 09:40:00,52.7,31.4,30.22,SW,218,0.0,1.0,44,0.00,,---,0.00,VWS V14.01,2013-03-30 13:40:00,
2013-03-30 09:45:00,53.2,30.7,30.22,WSW,239,2.0,2.0,42,0.00,,---,0.00,VWS V14.01,2013-03-30 13:45:00,
2013-03-30 09:50:00,53.7,31.8,30.22,West,276,0.0,2.0,43,0.00,,---,0.00,VWS V14.01,2013-03-30 13:50:00,
2013-03-30 09:55:00,54.7,30.2,30.22,SW,217,1.0,2.0,39,0.00,,---,0.00,VWS V14.01,2013-03-30 13:55:00,
2013-03-30 10:00:00,55.4,29.6,30.22,ENE,71,4.0,4.0,37,0.00,,---,0.00,VWS V14.01,2013-03-30 14:00:00,
2013-03-30 10:05:00,55.7,29.2,30.22,NE,55,1.0,4.0,36,0.00,,---,0.00,VWS V14.01,2013-03-30 14:05:00,
2013-03-30 10:10:00,55.8,28.6,30.22,NE,55,1.0,4.0,35,0.00,,---,0.00,VWS V14.01,2013-03-30 14:10:00,
2013-03-30 10:15:00,56.2,29.6,30.22,East,88,3.0,4.0,36,0.00,,---,0.00,VWS V14.01,2013-03-30 14:15:00,
2013-03-30 10:20:00,56.5,28.5,30.21,SE,125,2.0,4.0,34,0.00,,---,0.00,VWS V14.01,2013-03-30 14:20:00,
2013-03-30 10:25:00,56.6,27.9,30.21,NNW,341,1.0,5.0,33,0.00,,---,0.00,VWS V14.01,2013-03-30 14:25:00,
2013-03-30 10:30:00,56.5,27.8,30.21,ENE,76,5.0,6.0,33,0.00,,---,0.00,VWS V14.01,2013-03-30 14:30:00,
2013-03-30 10:35:00,56.6,27.9,30.21,ENE,63,0.0,6.0,33,0.00,,---,0.00,VWS V14.01,2013-03-30 14:35:00,
2013-03-30 10:40:00,56.5,27.8,30.21,ENE,69,5.0,6.0,33,0.00,,---,0.00,VWS V14.01,2013-03-30 14:40:00,
2013-03-30 10:45:00,56.5,27.8,30.21,SW,215,1.0,6.0,33,0.00,,---,0.00,VWS V14.01,2013-03-30 14:45:00,
2013-03-30 10:50:00,57.5,28.6,30.21,NE,55,2.0,6.0,33,0.00,,---,0.00,VWS V14.01,2013-03-30 14:50:00,
2013-03-30 10:55:00,58.0,28.3,30.21,ENE,77,0.0,6.0,32,0.00,,---,0.00,VWS V14.01,2013-03-30 14:55:00,
2013-03-30 11:00:00,58.3,28.6,30.21,NNE,15,5.0,5.0,32,0.00,,---,0.00,VWS V14.01,2013-03-30 15:00:00,
2013-03-30 11:05:00,58.4,28.7,30.20,NE,54,6.0,6.0,32,0.00,,---,0.00,VWS V14.01,2013-03-30 15:05:00,
2013-03-30 11:10:00,58.1,28.4,30.20,SE,138,1.0,7.0,32,0.00,,---,0.00,VWS V14.01,2013-03-30 15:10:00,
2013-03-30 11:15:00,58.8,29.0,30.20,SE,140,1.0,7.0,32,0.00,,---,0.00,VWS V14.01,2013-03-30 15:15:00,
2013-03-30 11:20:00,59.3,28.7,30.20,SW,225,2.0,7.0,31,0.00,,---,0.00,VWS V14.01,2013-03-30 15:20:00,
2013-03-30 11:25:00,59.8,28.3,30.20,SW,214,1.0,7.0,30,0.00,,---,0.00,VWS V14.01,2013-03-30 15:25:00,
2013-03-30 11:30:00,60.3,29.6,30.20,East,92,0.0,4.0,31,0.00,,---,0.00,VWS V14.01,2013-03-30 15:30:00,
2013-03-30 11:35:00,59.9,27.6,30.19,ESE,104,2.0,6.0,29,0.00,,---,0.00,VWS V14.01,2013-03-30 15:35:00,
2013-03-30 11:40:00,59.6,29.0,30.19,ESE,105,2.0,6.0,31,0.00,,---,0.00,VWS V14.01,2013-03-30 15:40:00,
2013-03-30 11:45:00,60.0,27.7,30.19,ESE,123,2.0,6.0,29,0.00,,---,0.00,VWS V14.01,2013-03-30 15:45:00,
2013-03-30 11:50:00,60.1,28.6,30.19,SSE,155,1.0,7.0,30,0.00,,---,0.00,VWS V14.01,2013-03-30 15:50:00,
2013-03-30 11:55:00,60.7,29.1,30.19,SSE,160,5.0,5.0,30,0.00,,---,0.00,VWS V14.01,2013-03-30 15:55:00,
2013-03-30 12:00:00,61.2,28.7,30.19,ESE,107,2.0,5.0,29,0.00,,---,0.00,VWS V14.01,2013-03-30 16:00:00,
2013-03-30 12:05:00,60.7,28.3,30.19,WSW,252,1.0,6.0,29,0.00,,---,0.00,VWS V14.01,2013-03-30 16:05:00,
2013-03-30 12:10:00,60.8,28.4,30.18,ESE,104,2.0,6.0,29,0.00,,---,0.00,VWS V14.01,2013-03-30 16:10:00,
2013-03-30 12:15:00,61.3,28.8,30.18,East,86,2.0,6.0,29,0.00,,---,0.00,VWS V14.01,2013-03-30 16:15:00,
2013-03-30 12:21:00,61.9,28.5,30.17,ENE,76,2.0,6.0,28,0.00,,---,0.00,VWS V14.01,2013-03-30 16:21:00,
2013-03-30 12:26:00,61.9,29.3,30.17,ESE,109,6.0,6.0,29,0.00,,---,0.00,VWS V14.01,2013-03-30 16:26:00,
2013-03-30 12:31:00,61.3,27.9,30.17,SW,224,1.0,6.0,28,0.00,,---,0.00,VWS V14.01,2013-03-30 16:31:00,
2013-03-30 12:36:00,61.4,28.0,30.17,WNW,291,3.0,6.0,28,0.00,,---,0.00,VWS V14.01,2013-03-30 16:36:00,
2013-03-30 12:41:00,60.9,27.6,30.16,WNW,298,4.0,7.0,28,0.00,,---,0.00,VWS V14.01,2013-03-30 16:41:00,
2013-03-30 12:46:00,61.0,29.4,30.16,WSW,238,5.0,7.0,30,0.00,,---,0.00,VWS V14.01,2013-03-30 16:46:00,
2013-03-30 12:51:00,62.0,29.4,30.16,South,182,2.0,7.0,29,0.00,,---,0.00,VWS V14.01,2013-03-30 16:51:00,
2013-03-30 12:56:00,62.3,28.8,30.16,SSW,198,6.0,6.0,28,0.00,,---,0.00,VWS V14.01,2013-03-30 16:56:00,
2013-03-30 13:01:00,62.4,28.9,30.15,ESE,120,1.0,8.0,28,0.00,,---,0.00,VWS V14.01,2013-03-30 17:01:00,
2013-03-30 13:06:00,62.6,29.9,30.15,SW,233,2.0,8.0,29,0.00,,---,0.00,VWS V14.01,2013-03-30 17:06:00,
2013-03-30 13:11:00,62.3,29.7,30.15,WNW,291,2.0,8.0,29,0.00,,---,0.00,VWS V14.01,2013-03-30 17:11:00,
2013-03-30 13:16:00,62.6,29.9,30.14,ESE,121,1.0,8.0,29,0.00,,---,0.00,VWS V14.01,2013-03-30 17:16:00,
2013-03-30 13:21:00,62.4,28.9,30.14,ENE,69,3.0,8.0,28,0.00,,---,0.00,VWS V14.01,2013-03-30 17:21:00,
2013-03-30 13:26:00,62.1,29.5,30.14,East,85,4.0,7.0,29,0.00,,---,0.00,VWS V14.01,2013-03-30 17:26:00,
2013-03-30 13:31:00,62.4,29.8,30.14,SSW,193,2.0,7.0,29,0.00,,---,0.00,VWS V14.01,2013-03-30 17:31:00,
2013-03-30 13:36:00,63.0,30.3,30.14,NNW,346,0.0,7.0,29,0.00,,---,0.00,VWS V14.01,2013-03-30 17:36:00,
2013-03-30 13:42:00,63.6,29.9,30.13,SSE,157,1.0,7.0,28,0.00,,---,0.00,VWS V14.01,2013-03-30 17:42:00,
2013-03-30 13:47:00,63.2,29.6,30.13,ESE,108,2.0,7.0,28,0.00,,---,0.00,VWS V14.01,2013-03-30 17:47:00,
2013-03-30 13:52:00,62.6,30.8,30.13,NE,49,5.0,7.0,30,0.00,,---,0.00,VWS V14.01,2013-03-30 17:52:00,
2013-03-30 13:57:00,63.0,30.3,30.13,South,177,1.0,4.0,29,0.00,,---,0.00,VWS V14.01,2013-03-30 17:57:00,
2013-03-30 14:02:00,63.7,31.7,30.13,SSW,198,4.0,4.0,30,0.00,,---,0.00,VWS V14.01,2013-03-30 18:02:00,
2013-03-30 14:07:00,64.3,31.4,30.13,SSE,155,1.0,6.0,29,0.00,,---,0.00,VWS V14.01,2013-03-30 18:07:00,
2013-03-30 14:12:00,64.4,31.5,30.13,SSW,209,5.0,6.0,29,0.00,,---,0.00,VWS V14.01,2013-03-30 18:12:00,
2013-03-30 14:17:00,65.0,32.0,30.12,SE,138,4.0,6.0,29,0.00,,---,0.00,VWS V14.01,2013-03-30 18:17:00,
2013-03-30 14:22:00,65.1,31.2,30.11,East,83,2.0,6.0,28,0.00,,---,0.00,VWS V14.01,2013-03-30 18:22:00,
2013-03-30 14:27:00,64.8,31.8,30.11,WSW,244,2.0,2.0,29,0.00,,---,0.00,VWS V14.01,2013-03-30 18:27:00,
2013-03-30 14:32:00,65.4,31.5,30.10,ENE,66,1.0,4.0,28,0.00,,---,0.00,VWS V14.01,2013-03-30 18:32:00,
2013-03-30 14:37:00,65.2,30.4,30.11,WNW,291,2.0,5.0,27,0.00,,---,0.00,VWS V14.01,2013-03-30 18:37:00,
2013-03-30 14:42:00,64.4,30.6,30.11,SSW,210,2.0,9.0,28,0.00,,---,0.00,VWS V14.01,2013-03-30 18:42:00,
2013-03-30 14:47:00,64.5,31.6,30.10,South,184,6.0,9.0,29,0.00,,---,0.00,VWS V14.01,2013-03-30 18:47:00,
2013-03-30 14:52:00,64.9,31.9,30.10,WSW,240,6.0,9.0,29,0.00,,---,0.00,VWS V14.01,2013-03-30 18:52:00,
2013-03-30 14:57:00,64.7,30.9,30.10,WNW,302,5.0,6.0,28,0.00,,---,0.00,VWS V14.01,2013-03-30 18:57:00,
2013-03-30 15:02:00,64.5,31.6,30.10,ENE,69,4.0,6.0,29,0.00,,---,0.00,VWS V14.01,2013-03-30 19:02:00,
2013-03-30 15:07:00,64.1,31.2,30.10,East,88,4.0,7.0,29,0.00,,---,0.00,VWS V14.01,2013-03-30 19:07:00,
2013-03-30 15:12:00,64.5,31.6,30.09,ENE,63,2.0,7.0,29,0.00,,---,0.00,VWS V14.01,2013-03-30 19:12:00,
2013-03-30 15:17:00,64.4,31.5,30.09,WNW,296,6.0,7.0,29,0.00,,---,0.00,VWS V14.01,2013-03-30 19:17:00,
2013-03-30 15:22:00,64.6,31.6,30.09,SW,227,4.0,7.0,29,0.00,,---,0.00,VWS V14.01,2013-03-30 19:22:00,
2013-03-30 15:27:00,64.8,31.8,30.09,WSW,249,5.0,6.0,29,0.00,,---,0.00,VWS V14.01,2013-03-30 19:27:00,
2013-03-30 15:32:00,64.7,31.7,30.09,South,169,4.0,8.0,29,0.00,,---,0.00,VWS V14.01,2013-03-30 19:32:00,
2013-03-30 15:37:00,65.2,32.2,30.08,SSE,150,0.0,8.0,29,0.00,,---,0.00,VWS V14.01,2013-03-30 19:37:00,
2013-03-30 15:42:00,65.9,32.8,30.08,ESE,114,3.0,8.0,29,0.00,,---,0.00,VWS V14.01,2013-03-30 19:42:00,
2013-03-30 15:47:00,65.8,32.7,30.08,ENE,76,2.0,8.0,29,0.00,,---,0.00,VWS V14.01,2013-03-30 19:47:00,
2013-03-30 15:52:00,65.9,33.6,30.08,NNW,348,1.0,8.0,30,0.00,,---,0.00,VWS V14.01,2013-03-30 19:52:00,
2013-03-30 15:57:00,66.7,34.3,30.08,NW,313,4.0,5.0,30,0.00,,---,0.00,VWS V14.01,2013-03-30 19:57:00,
2013-03-30 16:02:00,66.8,35.2,30.08,SSE,168,1.0,5.0,31,0.00,,---,0.00,VWS V14.01,2013-03-30 20:02:00,
2013-03-30 16:07:00,66.8,34.4,30.08,SW,223,5.0,6.0,30,0.00,,---,0.00,VWS V14.01,2013-03-30 20:07:00,
2013-03-30 16:12:00,66.7,34.3,30.07,ESE,121,2.0,6.0,30,0.00,,---,0.00,VWS V14.01,2013-03-30 20:12:00,
2013-03-30 16:17:00,67.2,35.6,30.07,SSE,159,5.0,6.0,31,0.00,,---,0.00,VWS V14.01,2013-03-30 20:17:00,
2013-03-30 16:22:00,67.0,36.2,30.07,WNW,300,5.0,9.0,32,0.00,,---,0.00,VWS V14.01,2013-03-30 20:22:00,
2013-03-30 16:27:00,66.6,35.8,30.07,West,271,4.0,5.0,32,0.00,,---,0.00,VWS V14.01,2013-03-30 20:27:00,
2013-03-30 16:32:00,66.3,35.6,30.07,West,277,1.0,5.0,32,0.00,,---,0.00,VWS V14.01,2013-03-30 20:32:00,
2013-03-30 16:38:00,65.8,35.9,30.07,NNW,327,5.0,7.0,33,0.00,,---,0.00,VWS V14.01,2013-03-30 20:38:00,
2013-03-30 16:43:00,64.9,35.9,30.07,WSW,244,1.0,7.0,34,0.00,,---,0.00,VWS V14.01,2013-03-30 20:43:00,
2013-03-30 16:48:00,65.4,36.3,30.06,SSE,158,2.0,7.0,34,0.00,,---,0.00,VWS V14.01,2013-03-30 20:48:00,
2013-03-30 16:53:00,65.6,36.5,30.06,North,350,0.0,7.0,34,0.00,,---,0.00,VWS V14.01,2013-03-30 20:53:00,
2013-03-30 16:58:00,66.0,36.1,30.06,SSE,161,7.0,7.0,33,0.00,,---,0.00,VWS V14.01,2013-03-30 20:58:00,
2013-03-30 17:03:00,66.2,36.3,30.06,SW,221,7.0,9.0,33,0.00,,---,0.00,VWS V14.01,2013-03-30 21:03:00,
2013-03-30 17:08:00,65.8,35.9,30.06,West,274,4.0,9.0,33,0.00,,---,0.00,VWS V14.01,2013-03-30 21:08:00,
2013-03-30 17:13:00,66.0,36.8,30.06,SW,224,4.0,9.0,34,0.00,,---,0.00,VWS V14.01,2013-03-30 21:13:00,
2013-03-30 17:18:00,66.3,36.4,30.06,SW,227,2.0,9.0,33,0.00,,---,0.00,VWS V14.01,2013-03-30 21:18:00,
2013-03-30 17:23:00,66.5,36.5,30.06,South,178,2.0,9.0,33,0.00,,---,0.00,VWS V14.01,2013-03-30 21:23:00,
2013-03-30 17:28:00,66.7,37.5,30.06,SSE,155,4.0,4.0,34,0.00,,---,0.00,VWS V14.01,2013-03-30 21:28:00,
2013-03-30 17:33:00,66.3,37.1,30.06,SW,221,2.0,6.0,34,0.00,,---,0.00,VWS V14.01,2013-03-30 21:33:00,
2013-03-30 17:38:00,66.0,36.8,30.06,West,264,1.0,6.0,34,0.00,,---,0.00,VWS V14.01,2013-03-30 21:38:00,
2013-03-30 17:43:00,66.2,37.0,30.06,NW,321,0.0,6.0,34,0.00,,---,0.00,VWS V14.01,2013-03-30 21:43:00,
2013-03-30 17:48:00,66.3,36.4,30.06,SW,236,2.0,6.0,33,0.00,,---,0.00,VWS V14.01,2013-03-30 21:48:00,
2013-03-30 17:53:00,65.7,36.6,30.06,WSW,248,0.0,6.0,34,0.00,,---,0.00,VWS V14.01,2013-03-30 21:53:00,
2013-03-30 17:58:00,65.7,37.3,30.06,WNW,286,0.0,4.0,35,0.00,,---,0.00,VWS V14.01,2013-03-30 21:58:00,
2013-03-30 18:03:00,65.6,36.5,30.06,West,269,5.0,8.0,34,0.00,,---,0.00,VWS V14.01,2013-03-30 22:03:00,
2013-03-30 18:08:00,65.5,37.2,30.06,North,11,1.0,8.0,35,0.00,,---,0.00,VWS V14.01,2013-03-30 22:08:00,
2013-03-30 18:13:00,65.5,36.4,30.06,West,275,1.0,8.0,34,0.00,,---,0.00,VWS V14.01,2013-03-30 22:13:00,
2013-03-30 18:18:00,65.4,37.1,30.06,WSW,248,1.0,8.0,35,0.00,,---,0.00,VWS V14.01,2013-03-30 22:18:00,
2013-03-30 18:23:00,64.9,36.6,30.06,WNW,303,1.0,8.0,35,0.00,,---,0.00,VWS V14.01,2013-03-30 22:23:00,
2013-03-30 18:28:00,64.5,37.0,30.06,SE,144,0.0,4.0,36,0.00,,---,0.00,VWS V14.01,2013-03-30 22:28:00,
2013-03-30 18:33:00,64.2,36.7,30.06,WSW,244,4.0,4.0,36,0.00,,---,0.00,VWS V14.01,2013-03-30 22:33:00,
2013-03-30 18:38:00,63.9,37.1,30.06,WSW,252,1.0,4.0,37,0.00,,---,0.00,VWS V14.01,2013-03-30 22:38:00,
2013-03-30 18:43:00,63.6,37.5,30.06,SW,214,2.0,4.0,38,0.00,,---,0.00,VWS V14.01,2013-03-30 22:43:00,
2013-03-30 18:48:00,63.3,37.3,30.06,South,184,0.0,4.0,38,0.00,,---,0.00,VWS V14.01,2013-03-30 22:48:00,
2013-03-30 18:53:00,63.0,37.7,30.06,SW,214,1.0,4.0,39,0.00,,---,0.00,VWS V14.01,2013-03-30 22:53:00,
2013-03-30 18:58:00,62.6,38.0,30.06,SSW,211,0.0,1.0,40,0.00,,---,0.00,VWS V14.01,2013-03-30 22:58:00,
2013-03-30 19:03:00,62.2,38.2,30.06,SSW,192,0.0,1.0,41,0.00,,---,0.00,VWS V14.01,2013-03-30 23:03:00,
2013-03-30 19:08:00,61.8,38.5,30.07,SSW,192,0.0,1.0,42,0.00,,---,0.00,VWS V14.01,2013-03-30 23:08:00,
2013-03-30 19:13:00,61.4,39.3,30.07,SSW,193,0.0,1.0,44,0.00,,---,0.00,VWS V14.01,2013-03-30 23:13:00,
2013-03-30 19:18:00,61.1,39.0,30.07,West,272,0.0,1.0,44,0.00,,---,0.00,VWS V14.01,2013-03-30 23:18:00,
2013-03-30 19:23:00,60.7,39.3,30.07,West,272,0.0,1.0,45,0.00,,---,0.00,VWS V14.01,2013-03-30 23:23:00,
2013-03-30 19:29:00,60.3,38.9,30.07,West,272,0.0,0.0,45,0.00,,---,0.00,VWS V14.01,2013-03-30 23:29:00,
2013-03-30 19:34:00,59.7,38.9,30.07,West,272,0.0,0.0,46,0.00,,---,0.00,VWS V14.01,2013-03-30 23:34:00,
2013-03-30 19:39:00,59.3,39.1,30.07,West,271,0.0,0.0,47,0.00,,---,0.00,VWS V14.01,2013-03-30 23:39:00,
2013-03-30 19:44:00,58.8,39.7,30.07,West,272,0.0,0.0,49,0.00,,---,0.00,VWS V14.01,2013-03-30 23:44:00,
2013-03-30 19:49:00,58.3,39.2,30.07,West,271,0.0,0.0,49,0.00,,---,0.00,VWS V14.01,2013-03-30 23:49:00,
2013-03-30 19:54:00,57.9,39.9,30.07,West,272,0.0,0.0,51,0.00,,---,0.00,VWS V14.01,2013-03-30 23:54:00,
2013-03-30 19:59:00,57.4,39.4,30.07,West,272,0.0,0.0,51,0.00,,---,0.00,VWS V14.01,2013-03-30 23:59:00,
2013-03-30 20:04:00,57.0,39.6,30.07,West,271,0.0,0.0,52,0.00,,---,0.00,VWS V14.01,2013-03-31 00:04:00,
2013-03-30 20:09:00,56.6,39.7,30.07,West,272,0.0,0.0,53,0.00,,---,0.00,VWS V14.01,2013-03-31 00:09:00,
2013-03-30 20:14:00,56.3,39.9,30.07,West,272,0.0,0.0,54,0.00,,---,0.00,VWS V14.01,2013-03-31 00:14:00,
2013-03-30 20:19:00,56.0,40.1,30.08,West,272,0.0,0.0,55,0.00,,---,0.00,VWS V14.01,2013-03-31 00:19:00,
2013-03-30 20:24:00,55.8,40.4,30.08,West,272,0.0,0.0,56,0.00,,---,0.00,VWS V14.01,2013-03-31 00:24:00,
2013-03-30 20:29:00,55.7,40.3,30.08,West,272,0.0,0.0,56,0.00,,---,0.00,VWS V14.01,2013-03-31 00:29:00,
2013-03-30 20:34:00,55.5,40.5,30.08,West,272,0.0,0.0,57,0.00,,---,0.00,VWS V14.01,2013-03-31 00:34:00,
2013-03-30 20:39:00,55.3,40.8,30.08,West,272,0.0,0.0,58,0.00,,---,0.00,VWS V14.01,2013-03-31 00:39:00,
2013-03-30 20:44:00,55.0,41.0,30.08,West,272,0.0,0.0,59,0.00,,---,0.00,VWS V14.01,2013-03-31 00:44:00,
2013-03-30 20:49:00,54.8,40.3,30.08,West,272,0.0,0.0,58,0.00,,---,0.00,VWS V14.01,2013-03-31 00:49:00,
2013-03-30 20:54:00,54.5,40.5,30.08,West,272,0.0,0.0,59,0.00,,---,0.00,VWS V14.01,2013-03-31 00:54:00,
2013-03-30 20:59:00,54.3,40.7,30.08,West,272,0.0,0.0,60,0.00,,---,0.00,VWS V14.01,2013-03-31 00:59:00,
2013-03-30 21:04:00,54.0,40.9,30.08,West,272,0.0,0.0,61,0.00,,---,0.00,VWS V14.01,2013-03-31 01:04:00,
2013-03-30 21:09:00,53.8,40.7,30.08,West,271,0.0,0.0,61,0.00,,---,0.00,VWS V14.01,2013-03-31 01:09:00,
2013-03-30 21:14:00,53.6,40.5,30.08,West,272,0.0,0.0,61,0.00,,---,0.00,VWS V14.01,2013-03-31 01:14:00,
2013-03-30 21:19:00,53.4,40.3,30.08,West,272,0.0,0.0,61,0.00,,---,0.00,VWS V14.01,2013-03-31 01:19:00,
2013-03-30 21:24:00,53.2,40.5,30.08,West,272,0.0,0.0,62,0.00,,---,0.00,VWS V14.01,2013-03-31 01:24:00,
2013-03-30 21:29:00,53.0,40.3,30.08,West,272,0.0,0.0,62,0.00,,---,0.00,VWS V14.01,2013-03-31 01:29:00,
2013-03-30 21:34:00,52.7,40.9,30.08,West,272,0.0,0.0,64,0.00,,---,0.00,VWS V14.01,2013-03-31 01:34:00,
2013-03-30 21:39:00,52.5,40.7,30.08,West,272,0.0,0.0,64,0.00,,---,0.00,VWS V14.01,2013-03-31 01:39:00,
2013-03-30 21:44:00,52.4,40.6,30.08,West,272,0.0,0.0,64,0.00,,---,0.00,VWS V14.01,2013-03-31 01:44:00,
2013-03-30 21:49:00,52.3,40.9,30.08,West,272,0.0,0.0,65,0.00,,---,0.00,VWS V14.01,2013-03-31 01:49:00,
2013-03-30 21:54:00,52.2,41.2,30.08,West,272,0.0,0.0,66,0.00,,---,0.00,VWS V14.01,2013-03-31 01:54:00,
2013-03-30 21:59:00,52.2,41.2,30.08,West,272,0.0,0.0,66,0.00,,---,0.00,VWS V14.01,2013-03-31 01:59:00,
2013-03-30 22:04:00,52.1,41.5,30.08,West,272,0.0,0.0,67,0.00,,---,0.00,VWS V14.01,2013-03-31 02:04:00,
2013-03-30 22:09:00,52.0,41.4,30.08,West,271,0.0,0.0,67,0.00,,---,0.00,VWS V14.01,2013-03-31 02:09:00,
2013-03-30 22:14:00,51.9,41.7,30.08,West,272,0.0,0.0,68,0.00,,---,0.00,VWS V14.01,2013-03-31 02:14:00,
2013-03-30 22:19:00,51.8,41.6,30.08,West,272,0.0,0.0,68,0.00,,---,0.00,VWS V14.01,2013-03-31 02:19:00,
2013-03-30 22:24:00,51.7,41.5,30.08,West,272,0.0,0.0,68,0.00,,---,0.00,VWS V14.01,2013-03-31 02:24:00,
2013-03-30 22:29:00,51.6,41.8,30.08,West,271,0.0,0.0,69,0.00,,---,0.00,VWS V14.01,2013-03-31 02:29:00,
2013-03-30 22:34:00,51.5,42.0,30.08,West,271,0.0,0.0,70,0.00,,---,0.00,VWS V14.01,2013-03-31 02:34:00,
2013-03-30 22:39:00,51.3,41.5,30.08,West,272,0.0,0.0,69,0.00,,---,0.00,VWS V14.01,2013-03-31 02:39:00,
2013-03-30 22:44:00,51.1,41.3,30.08,West,272,0.0,0.0,69,0.00,,---,0.00,VWS V14.01,2013-03-31 02:44:00,
2013-03-30 22:49:00,51.0,41.2,30.08,West,272,0.0,0.0,69,0.00,,---,0.00,VWS V14.01,2013-03-31 02:49:00,
2013-03-30 22:54:00,50.9,41.5,30.08,West,272,0.0,0.0,70,0.00,,---,0.00,VWS V14.01,2013-03-31 02:54:00,
2013-03-30 22:59:00,50.7,41.3,30.08,West,272,0.0,0.0,70,0.00,,---,0.00,VWS V14.01,2013-03-31 02:59:00,
2013-03-30 23:05:00,50.6,41.6,30.08,West,272,0.0,0.0,71,0.00,,---,0.00,VWS V14.01,2013-03-31 03:05:00,
2013-03-30 23:10:00,50.4,41.4,30.08,West,272,0.0,0.0,71,0.00,,---,0.00,VWS V14.01,2013-03-31 03:10:00,
2013-03-30 23:15:00,50.3,41.6,30.08,West,272,0.0,0.0,72,0.00,,---,0.00,VWS V14.01,2013-03-31 03:15:00,
2013-03-30 23:20:00,50.2,41.5,30.08,West,272,0.0,0.0,72,0.00,,---,0.00,VWS V14.01,2013-03-31 03:20:00,
2013-03-30 23:25:00,50.1,41.8,30.08,West,272,0.0,0.0,73,0.00,,---,0.00,VWS V14.01,2013-03-31 03:25:00,
2013-03-30 23:30:00,49.9,41.6,30.08,West,272,0.0,0.0,73,0.00,,---,0.00,VWS V14.01,2013-03-31 03:30:00,
2013-03-30 23:35:00,49.6,41.3,30.07,West,271,0.0,0.0,73,0.00,,---,0.00,VWS V14.01,2013-03-31 03:35:00,
2013-03-30 23:40:00,49.3,41.0,30.07,West,272,0.0,0.0,73,0.00,,---,0.00,VWS V14.01,2013-03-31 03:40:00,
2013-03-30 23:45:00,49.0,40.7,30.07,West,272,0.0,0.0,73,0.00,,---,0.00,VWS V14.01,2013-03-31 03:45:00,
2013-03-30 23:50:00,48.7,40.8,30.07,West,272,0.0,0.0,74,0.00,,---,0.00,VWS V14.01,2013-03-31 03:50:00,
2013-03-30 23:55:00,48.5,41.3,30.07,West,271,0.0,0.0,76,0.00,,---,0.00,VWS V14.01,2013-03-31 03:55:00,